Location: Neuvy Saint Sepulchre
(46.5953°N, 1.8122°E)
Time: 16:19:12
(UTC+02:00)

ISS - Pass Details

Date: 10 May 2026
Orbit: 414 x 424 km, 51.6° (Epoch: 21 May)

Event Time Altitude Azimuth Distance (km) Brightness Sun altitude
Rises 00:52:01 0° 278° (W) 2,351 0.3 -24.6°
Reaches altitude 10° 00:54:14 10° 288° (WNW) 1,490 -0.6 -24.7°
Maximum altitude 00:57:19 33° 356° (N) 717 -2.1 -24.8°
Enters shadow 00:57:20 33° 356° (N) 717 -2.1 -24.8°
